Total_Precipitation_Accumulation
1.31 1.35 1.46 1.58 1.76 1.83 1.81 1.86 1.89 1.90 2.03 2.16 2.26 2.34 2.35 2.38 2.51 2.60 2.46 2.60 2.60 2.72 2.65 2.61 2.57 2.77 2.81 2.67 2.82 2.91 3.11 3.30 3.04 2.64 2.75 2.76 2.65 2.42 2.41 2.37 2.26 2.22 2.01
1.34 1.44 1.59 1.68 1.78 1.85 1.76 1.84 2.03 2.07 2.12 2.22 2.32 2.41 2.32 2.40 2.53 2.48 2.46 2.53 2.59 2.58 2.68 2.88 2.82 2.96 2.97 2.93 3.10 3.08 3.15 3.38 3.29 2.98 2.85 2.89 2.76 2.62 2.54 2.33 2.01 1.92 1.92
1.70 1.68 1.72 1.71 1.79 1.91 1.95 1.98 2.08 2.19 2.26 2.24 2.21 2.28 2.42 2.59 2.62 2.46 2.44 2.44 2.37 2.30 2.47 2.74 3.03 3.47 3.32 3.15 3.04 2.95 2.98 3.04 3.26 3.00 2.76 2.94 2.79 2.68 2.63 2.31 2.06 2.01 1.69
1.62 1.62 1.74 1.82 1.94 2.07 2.14 2.18 2.20 2.20 2.24 2.31 2.36 2.37 2.45 2.49 2.45 2.43 2.47 2.48 2.44 2.30 2.31 2.41 2.58 2.88 3.05 3.20 2.99 2.86 2.90 3.00 3.14 3.07 2.99 3.19 3.24 3.08 2.88 2.49 2.32 2.17 1.93
1.88 2.05 2.20 2.22 2.24 2.35 2.40 2.37 2.41 2.38 2.32 2.50 2.54 2.50 2.49 2.44 2.25 2.42 2.55 2.43 2.51 2.43 2.36 2.31 2.16 2.28 2.48 2.68 2.55 2.83 3.01 2.99 3.06 3.11 3.22 3.59 3.58 3.37 2.85 2.59 2.49 2.37 2.11
2.22 2.53 2.64 2.67 2.69 2.72 2.75 2.73 2.71 2.65 2.78 2.80 2.65 2.59 2.53 2.27 2.42 2.46 2.48 2.49 2.58 2.53 2.45 2.41 2.25 2.09 2.07 2.20 2.27 2.48 2.74 2.80 2.89 3.05 3.14 3.33 3.38 3.31 3.09 2.81 2.57 2.41 2.13
2.24 2.43 2.52 2.62 2.71 2.87 2.89 2.87 2.84 2.85 2.87 2.88 2.92 2.88 2.75 2.80 2.80 2.44 2.38 2.39 2.46 2.45 2.60 2.69 2.27 1.90 2.10 2.06 2.14 2.15 2.11 2.27 2.49 2.71 2.86 2.92 3.23 3.35 3.36 2.93 2.75 2.55 2.20
2.44 2.61 2.70 2.68 2.70 2.76 2.73 2.66 2.69 2.83 2.86 2.81 2.74 2.67 2.62 2.61 2.67 2.39 2.32 2.20 2.24 2.27 2.29 2.31 2.29 2.12 2.04 2.06 2.04 1.92 1.79 1.80 1.94 2.00 2.12 2.40 2.76 3.23 3.52 3.26 3.13 2.91 2.56
2.61 2.71 2.83 2.91 2.94 2.82 2.70 2.72 2.78 2.87 2.75 2.67 2.60 2.59 2.53 2.53 2.59 2.38 2.31 2.12 2.11 2.05 2.03 2.04 2.07 1.94 2.01 1.98 1.88 1.82 1.76 1.65 1.66 1.74 1.73 1.87 2.18 2.59 3.08 3.28 3.02 2.67 2.36
2.57 2.67 2.80 2.88 3.03 3.11 3.04 3.06 3.02 2.95 2.85 2.80 2.71 2.71 2.67 2.64 2.77 2.51 2.35 2.16 2.15 2.17 2.26 2.23 2.19 2.01 1.99 1.88 1.72 1.72 1.59 1.47 1.57 1.56 1.50 1.52 1.65 1.99 2.49 2.65 2.75 2.59 2.29
2.27 2.29 2.48 2.74 2.95 3.09 3.19 3.18 3.18 3.10 2.98 2.78 2.60 2.53 2.51 2.56 2.70 2.51 2.36 2.14 2.14 2.26 2.35 2.39 2.33 2.23 1.92 1.77 1.62 1.54 1.52 1.65 1.72 1.71 1.66 1.66 1.81 2.00 2.17 2.41 2.64 2.68 2.45
2.29 2.41 2.56 2.78 2.87 2.89 3.00 3.04 3.17 3.14 3.04 2.94 2.69 2.47 2.36 2.25 2.20 2.22 2.09 1.97 2.03 2.14 2.24 2.36 2.40 2.31 2.03 1.87 1.71 1.59 1.64 1.61 1.61 1.72 1.70 1.66 1.69 1.79 1.97 2.27 2.54 2.61 2.49
2.53 2.62 2.69 2.77 2.87 2.93 2.98 2.97 2.96 2.92 2.78 2.69 2.56 2.44 2.36 2.29 2.20 2.03 1.82 1.75 1.78 1.81 1.95 2.30 2.43 2.28 2.04 1.78 1.69 1.69 1.62 1.49 1.52 1.56 1.47 1.42 1.46 1.58 1.79 2.09 2.43 2.63 2.57
2.58 2.50 2.47 2.48 2.55 2.63 2.74 2.77 2.72 2.63 2.55 2.48 2.41 2.33 2.23 2.18 2.07 1.95 1.84 1.70 1.66 1.64 1.66 1.89 2.02 1.98 1.79 1.65 1.57 1.48 1.39 1.40 1.39 1.38 1.38 1.45 1.53 1.58 1.64 1.80 2.17 2.51 2.61
2.57 2.57 2.61 2.61 2.64 2.68 2.74 2.83 2.70 2.56 2.51 2.37 2.24 2.27 2.23 2.08 2.03 1.98 1.85 1.71 1.63 1.68 1.68 1.70 1.79 1.89 1.86 1.79 1.78 1.71 1.61 1.54 1.45 1.40 1.49 1.53 1.64 1.74 1.79 1.91 2.15 2.36 2.33
2.63 2.55 2.58 2.65 2.74 2.83 2.86 2.91 2.96 2.67 2.57 2.41 2.28 2.20 2.12 1.98 1.86 1.72 1.65 1.60 1.51 1.50 1.42 1.45 1.65 1.85 1.98 1.99 2.03 1.99 1.90 1.81 1.73 1.72 1.75 1.74 1.73 1.79 1.84 1.89 2.10 2.29 2.27
2.65 2.65 2.66 2.64 2.67 2.72 2.68 2.63 2.66 2.56 2.35 2.27 2.15 2.00 1.86 1.76 1.61 1.51 1.48 1.48 1.44 1.36 1.23 1.35 1.51 1.66 1.86 2.02 2.08 2.04 1.95 1.96 2.03 2.03 1.99 1.96 1.93 1.95 2.00 1.98 1.99 2.13 2.20
2.58 2.67 2.71 2.69 2.59 2.55 2.47 2.42 2.38 2.36 2.21 2.04 1.93 1.85 1.78 1.69 1.67 1.66 1.62 1.53 1.42 1.36 1.27 1.45 1.62 1.76 1.90 2.08 2.14 2.11 2.10 2.09 2.12 2.11 2.12 2.11 2.08 2.07 2.07 2.02 1.95 1.94 2.06
2.36 2.32 2.29 2.30 2.28 2.26 2.17 2.09 2.01 1.94 1.98 2.01 1.87 1.73 1.76 1.68 1.74 1.84 1.68 1.47 1.48 1.51 1.54 1.61 1.68 1.78 1.92 2.08 2.23 2.30 2.33 2.29 2.25 2.22 2.18 2.20 2.23 2.21 2.09 2.03 2.07 2.10 2.06
1.88 2.01 1.90 1.79 1.79 1.79 1.78 1.77 1.73 1.73 1.81 1.93 1.87 1.66 1.61 1.55 1.62 1.76 1.59 1.57 1.61 1.56 1.55 1.63 1.67 1.70 1.86 2.00 2.10 2.18 2.23 2.21 2.20 2.23 2.19 2.17 2.19 2.19 2.10 2.09 2.17 2.18 2.05
1.50 1.51 1.53 1.41 1.45 1.58 1.65 1.65 1.64 1.69 1.75 1.80 1.73 1.57 1.49 1.39 1.59 1.72 1.65 1.59 1.55 1.48 1.47 1.49 1.54 1.62 1.75 1.90 1.98 2.07 2.15 2.14 2.10 2.12 2.19 2.19 2.10 2.12 2.10 2.11 2.13 2.20 2.17
1.15 1.14 1.14 1.13 1.26 1.38 1.41 1.45 1.54 1.59 1.63 1.65 1.56 1.40 1.39 1.37 1.54 1.62 1.56 1.54 1.53 1.52 1.52 1.54 1.50 1.51 1.61 1.75 1.81 1.90 2.05 2.06 1.99 2.00 2.11 2.24 2.18 2.10 2.15 2.19 2.18 2.22 2.23
1.02 1.07 1.10 1.11 1.20 1.24 1.24 1.31 1.46 1.53 1.54 1.55 1.47 1.39 1.36 1.38 1.45 1.54 1.56 1.51 1.47 1.47 1.46 1.51 1.53 1.52 1.58 1.68 1.70 1.77 1.93 1.93 1.91 1.95 2.04 2.10 2.09 2.07 2.11 2.12 2.12 2.18 2.19
1.04 1.07 1.10 1.06 1.04 1.08 1.14 1.19 1.25 1.28 1.32 1.35 1.34 1.29 1.27 1.28 1.33 1.35 1.36 1.36 1.41 1.45 1.47 1.54 1.58 1.62 1.68 1.68 1.59 1.54 1.63 1.67 1.65 1.68 1.77 1.89 1.97 2.02 2.05 2.03 1.98 2.00 2.07
1.00 1.07 1.10 1.16 1.17 1.17 1.17 1.19 1.21 1.18 1.19 1.22 1.24 1.27 1.29 1.27 1.30 1.32 1.35 1.38 1.39 1.44 1.44 1.46 1.53 1.59 1.61 1.50 1.41 1.39 1.50 1.46 1.40 1.41 1.52 1.69 1.79 1.86 1.92 1.92 1.92 1.95 2.04
1.09 1.15 1.23 1.29 1.32 1.32 1.35 1.36 1.32 1.27 1.27 1.24 1.29 1.32 1.39 1.45 1.46 1.47 1.46 1.45 1.45 1.47 1.46 1.48 1.49 1.44 1.42 1.37 1.29 1.29 1.26 1.16 1.15 1.27 1.32 1.44 1.59 1.66 1.77 1.85 1.83 1.87 1.93